User: anonymous   Login
Location: Fairmont
(43.6520°N, 94.4610°W)
Time: 12:42:44
(UTC-06:00)
Language:

Cosmos-2242 - Orbit

View from above orbital plane
View from above orbital plane
View from above satellite
View from above satellite

Ground track
Ground track

The orbit data is extracted from the following two-line orbital elements,

1 22626U 93024A   14326.79465714  .00001769  00000-0  19766-3 0  2678
2 22626 082.5230 204.9256 0019382 355.3885 004.7150 14.86317204166824
Epoch (UTC): 22 November 2014 19:04:18
Eccentricity: 0.0019382
inclination: 82.5230°
perigee height: 596 km
apogee height: 623 km
right ascension of ascending node: 204.9256°
argument of perigee: 355.3885°
revolutions per day: 14.86317204
mean anomaly at epoch: 4.7150°
orbit number at epoch: 16682

The dashed part of the orbit path shows where the satellite is in the earth's shadow,  

DLR